Location: Bright Sky Observatory
(40.7821°N, 74.2425°W)
Time: 08:58:04
(UTC-04:00)

Daily predictions for brighter satellites

Satellite Brightness Start Highest point End
(mag) Time Altitude Azimuth Time Altitude Azimuth Time Altitude Azimuth
Cosmos 2219 Rocket 3.6 20:37:53 10° SW 20:43:17 46° WNW 20:48:43 10° NNE
CZ-2D R/B 3.8 20:40:38 10° S 20:44:28 64° W 20:48:22 10° NNW
Cosmos 1892 Rocket 3.8 20:41:34 10° S 20:45:52 54° E 20:50:15 10° NNE
Aureole 2 Rocket 3.8 20:43:07 10° SSE 20:46:22 24° ESE 20:49:26 10° NE
Meteor 2-17 Rocket 4.5 20:40:52 10° N 20:47:02 77° E 20:53:11 10° SSE
Cosmos 1939 Rocket 3.9 20:43:43 10° SE 20:47:25 32° ENE 20:51:08 10° N
SL-16 R/B 2.3 20:44:08 10° S 20:49:40 61° ESE 20:55:15 10° NNE
USA 186 2.1 20:46:49 10° S 20:49:42 57° W 20:52:26 10° NNW
CZ-4 DEB 3.4 20:48:19 10° S 20:51:29 57° W 20:54:42 10° NNW
SPOT 5 3.9 20:48:26 10° SE 20:52:07 26° ENE 20:55:44 10° NNE
Cosmos 1666 3.7 20:52:31 10° NNE 20:56:02 31° ENE 20:59:32 10° SE
Cosmos 1500 4.1 20:53:33 10° NNW 20:57:19 51° W 21:01:05 10° S
Lacrosse 5 rocket 1.7 20:55:09 10° SW 20:58:58 64° NW 21:02:59 10° NE
Cosmos 1331 Rocket 4.0 20:56:00 10° NNW 21:01:14 75° ENE 21:06:23 10° SSE
Lacrosse 5 4.2 20:58:59 10° W 21:03:19 28° NNW 21:07:41 10° NNE
Meteor 1-23 Rocket 4.2 20:58:45 10° S 21:04:19 68° E 21:10:00 10° NNE
CZ-4 SHROUD 4.3 21:01:42 11° SE 21:04:23 29° ENE 21:07:10 10° N
Cosmos 2285 Rocket 4.1 21:00:11 10° NNW 21:06:31 72° ENE 21:12:50 10° SSE
Cosmos 1743 3.0 21:03:42 10° NNW 21:07:32 69° W 21:11:20 10° S
Cosmos 1302 Rocket 4.3 21:05:20 10° N 21:10:28 54° ENE 21:15:14 12° SE
Cosmos 1726 Rocket 3.8 21:06:31 10° NNW 21:10:59 74° W 21:15:22 10° S
ALOS 3.6 21:10:03 10° SSW 21:14:25 40° W 21:18:50 10° NNW
SeaSat 1 2.7 21:10:21 11° SE 21:14:55 56° ENE 21:19:45 10° NNW
Okean 2 3.4 21:11:27 10° S 21:15:38 83° E 21:19:50 10° N
Cosmos 1603 4.1 21:13:23 10° S 21:18:33 39° ESE 21:23:44 10° NE
CZ-4B R/B 4.3 21:14:36 10° NE 21:19:09 32° E 21:23:39 11° SSE
Cosmos 1464 Rocket 4.0 21:13:25 10° N 21:19:35 82° E 21:25:45 10° S
Cosmos 2058 Rocket 3.2 21:17:36 10° NNW 21:21:59 74° W 21:26:19 10° S
APEX 3.7 21:18:42 10° NNW 21:22:41 68° ENE 21:26:55 15° SSE
Meteor 2-9 Rocket 4.3 21:18:07 10° N 21:23:49 82° E 21:29:37 10° S
Meteor 2-4 Rocket 4.0 21:20:53 10° SSW 21:26:43 78° W 21:32:41 10° N
Cosmos 1602 Rocket 3.7 21:24:55 10° S 21:29:18 58° E 21:33:43 10° NNE
Cosmos 1461 3.2 21:27:42 10° NNW 21:31:57 53° NE 21:34:38 20° SE
deb Chang Zheng 4 4.3 21:27:42 10° N 21:32:02 56° WNW 21:36:19 10° SSW
Cosmos 2297 4.4 21:27:43 10° NNW 21:33:15 54° WSW 21:38:48 10° S
ATLAS 3B R/B 3.9 21:29:52 12° SSE 21:34:58 24° ESE 21:40:43 10° ENE
Milstar 3 Cent rocket 3.9 21:32:04 10° WSW 21:36:34 18° SSW 21:39:28 12° S
Cosmos 2034 Rocket 4.0 21:31:04 10° N 21:37:29 85° E 21:43:36 11° S
PSLV R/B 3.1 21:37:02 20° SSE 21:39:03 89° W 21:42:10 10° NNW
CZ-2C R/B 3.5 21:38:01 10° SW 21:39:18 13° W 21:40:35 10° WNW
Cosmos 1812 Rocket 3.8 21:35:48 10° N 21:40:04 50° E 21:42:44 21° SSE
ERS-1 Rocket 4.1 21:38:36 10° SSW 21:43:17 40° W 21:48:01 10° NNW
Envisat 3.1 21:39:39 12° S 21:44:19 78° WSW 21:49:25 10° NNW
Cosmos 1943 4.2 21:41:51 19° SE 21:44:21 26° ESE 21:49:00 10° NE
BREEZE-M DEB (TANK) 2.1 21:41:19 10° SW 21:45:52 80° SSE 21:48:02 10° ENE
USA 234 3.3 21:43:14 18° SE 21:48:20 79° NE 21:54:56 10° NW
YAOGAN 6 2.8 21:50:25 28° SE 21:52:10 58° ENE 21:55:52 10° N
H-2A R/B 3.6 21:49:18 10° SSW 21:53:05 31° W 21:56:56 10° NW
Cosmos 1943 Rocket 4.3 21:54:11 10° NNE 21:57:13 15° NE 22:00:14 10° E
MetOp-A 4.2 21:56:20 19° S 22:00:17 83° WSW 22:05:41 10° NNW
Abrixas rocket 2.7 21:59:27 10° WNW 22:02:47 50° SW 22:03:38 39° S
Cosmos 1626 Rocket 4.1 21:58:29 10° SSW 22:02:52 59° W 22:07:16 10° N
Meteor 2-12 Rocket 4.4 22:05:38 10° N 22:11:46 86° E 22:15:36 24° S
Atlas Centaur 2 3.6 22:07:17 10° SW 22:14:24 36° SSE 22:18:15 25° SE
CZ-4C R/B 3.7 22:15:26 38° SE 22:16:49 57° ENE 22:20:53 10° N
Cosmos 1953 Rocket 3.9 22:18:27 39° SE 22:19:27 47° E 22:23:43 10° NNE
Cosmos 2346 Rocket 4.4 22:17:08 24° S 22:21:01 71° E 22:27:09 10° NNE
H-2A R/B 2.6 22:19:20 31° ESE 22:21:02 41° ENE 22:25:45 10° N
SAR-Lupe-2 4.3 22:21:49 36° E 22:22:07 36° ENE 22:25:27 10° N
PSLV R/B 3.3 22:18:58 10° WSW 22:22:27 62° SSE 22:22:27 62° SSE
COSMOS 2455 2.8 22:17:28 10° SSW 22:23:28 89° SE 22:29:32 10° NNE
Cosmos 1992 Rocket 4.0 22:18:27 10° NNW 22:23:42 74° ENE 22:25:45 37° SSE
CZ-4 R/B 3.9 22:19:02 10° NNE 22:24:02 88° WNW 22:27:22 22° SSW
Cosmos 2369 Rocket 2.4 22:23:33 10° NNW 22:29:10 59° ENE 22:31:20 36° SE
SPOT 1/Viking Rocket 3.8 22:26:44 27° S 22:29:31 62° WSW 22:34:39 10° NNW
SPOT 5 4.3 22:26:56 13° SSW 22:30:07 27° W 22:33:51 10° NW
DELTA 2 DEB (DPAF) 4.1 22:29:30 44° SSE 22:30:55 83° ENE 22:35:25 10° NNW
ARGOS 3.2 22:29:23 31° S 22:32:04 76° WSW 22:37:31 10° NNW
Spot 4 4.4 22:35:16 37° ESE 22:36:23 43° ENE 22:40:55 10° N
IGS 5A 3.9 22:36:44 43° E 22:37:15 46° ENE 22:41:15 10° N
Cosmos 1953 3.9 22:34:45 10° NNE 22:37:47 22° ENE 22:37:47 22° ENE
Geosat 3.9 22:33:22 10° NNE 22:38:26 87° WNW 22:42:04 19° SSW
DMSP B5D2-2 4.3 22:33:33 10° NNE 22:38:41 49° E 22:39:47 42° SE
Cosmos 1190 Rocket 3.9 22:37:27 36° S 22:39:37 72° ESE 22:44:56 10° NNE
NOAA 11 4.3 22:37:27 33° S 22:39:54 71° WSW 22:45:20 10° NNW
Landsat 7 3.7 22:40:04 47° SSE 22:41:26 86° E 22:46:13 10° NNW
Cosmos-2242 3.9 22:40:48 10° N 22:44:51 35° ENE 22:45:05 35° E
Meteor 1-22 Rocket 4.1 22:40:04 10° N 22:45:39 85° E 22:47:39 43° SSE
Spot 2 4.3 22:45:21 10° NNE 22:50:05 67° ESE 22:51:03 53° SSE
Cosmos 2263 4.3 22:44:55 10° NNW 22:50:30 63° ENE 22:52:07 44° ESE
SL-24 R/B 4.4 22:46:44 10° N 22:51:38 74° E 22:52:52 51° SSE
SeaSat 1 4.5 22:50:09 13° SW 22:52:42 19° WSW 22:56:10 10° WNW
Cosmos 1758 Rocket 3.5 22:53:08 61° S 22:53:54 88° WNW 22:58:18 10° N
Lacrosse 4 Rocket 1.6 22:55:02 54° ENE 22:55:02 54° ENE 22:58:28 10° NE
Cosmos 676 Rocket 4.1 22:54:56 52° SE 22:55:48 59° ESE 23:01:03 10° NNE
SL-08 RB Rocket 4.4 22:55:15 35° SW 22:56:37 46° W 23:01:00 10° NNW
Terra 1.7 22:56:20 59° SSE 22:57:14 87° ENE 23:02:01 10° NNW
CARTOSAT-1 3.4 22:57:34 69° S 22:58:04 85° WSW 23:02:26 10° NNW
Cosmos 1346 Rocket 3.3 23:03:05 48° WSW 23:03:38 53° WNW 23:07:29 10° N
Cosmos 1140 Rocket 4.2 23:09:35 36° E 23:09:35 36° E 23:13:55 10° NE
Cosmos 1900 4.3 23:17:42 61° SSW 23:18:37 88° ESE 23:23:47 10° NNE
Meteor 1-21 4.5 23:19:02 39° SSW 23:21:09 67° WNW 23:26:57 10° N
Cosmos 1758 3.6 23:18:08 10° N 23:21:45 63° NNE 23:21:45 63° NNE
Nadezhda 4 Rocket 4.0 23:21:21 53° SE 23:22:39 66° E 23:28:55 10° NNE
Cosmos 1842 3.6 23:23:02 64° NW 23:23:02 64° NW 23:26:35 10° N
Cosmos 1842 Rocket 4.1 23:20:01 10° N 23:23:51 46° ENE 23:23:51 46° ENE
ATLAS 3B R/B 3.0 23:17:21 10° SW 23:25:04 76° NW 23:32:38 10° NNE
SL-27 R/B 4.4 23:29:34 24° NNE 23:29:34 24° NNE 23:31:03 10° NNE
Cosmos 1943 4.2 23:23:34 14° SW 23:28:07 43° WNW 23:33:33 10° NNE
Cosmos 407 Rocket 4.1 23:27:24 31° SW 23:29:36 52° WNW 23:34:44 10° N
USA 234 4.3 23:30:35 27° SW 23:31:43 28° SW 23:37:13 10° WNW
Meteor 2-5 Rocket 4.4 23:34:17 39° E 23:34:25 39° E 23:39:47 10° NNE
Cosmos 2208 Rocket 4.2 23:32:54 10° N 23:38:00 55° ENE 23:38:18 54° E
Cosmos 1544 4.5 23:37:02 10° N 23:39:32 35° NNE 23:39:32 35° NNE
Cosmos 1943 Rocket 2.0 23:36:11 10° NNW 23:41:46 89° ENE 23:42:15 76° SSE
Cosmos 1954 Rocket 4.3 23:47:02 51° WSW 23:48:05 62° WNW 23:53:22 10° NNE
CZ-4B R/B 3.7 23:50:30 22° NE 23:50:30 22° NE 23:52:31 10° NNE
